Погода в Прокопьевском

Россия / Кировская область     58°22′12″N   46°49′11″E
темп.,
°C
ветер,
м/с
пор.,
м/с
влажн.,
%
обл.,
%
осадки,
мм/ч
давл.,
гПа
погр.,
м
13 мая, чт
чт1300:00+14вюв23805 0.0 102548
03:00+12юв228139 0.0 102511
06:00+16юв23705 0.0 102497
09:00+22юв35478 0.0 1024618
12:00+25ююв473631 0.0 10232263
15:00+25ююв563427 0.0 10212252
18:00+21ююв51052100 0.0 1021872
21:00+18юв41468100 0.1 1019509
14 мая, пт
пт1400:00+16ююв4137596 0.3 1019469
03:00+15ююв3108967 1.2 1018342
06:00+16ююз369022 0.0 1019292
09:00+20юз246864 0.0 1019861
12:00+23юз3550100 0.0 10191717
15:00+23ююз3450100 0.0 10191406
18:00+21ююз25585 0.0 1018383
21:00+16ююз1176100 0.0 101811
15 мая, сб
сб1500:00+16ююв1174100 0.0 101811
03:00+15вюв238186 0.0 101863
06:00+17вюв3885100 0.1 1017246
09:00+22ююв4765100 0.1 1016569
12:00+27ю574599 0.0 10151279
15:00+27ю6133893 0.0 10131614
18:00+24ю613465 0.0 10121257
21:00+19ю414605 0.0 1013692
16 мая, вс
вс1600:00+17ююз4137269 0.0 1013511
03:00+16ю311855 0.1 1013349
06:00+18ююз4118086 0.0 1014549
09:00+21юз6115472 0.0 10141289
12:00+23юз6941100 0.0 10141664
15:00+24юз583987 0.0 10141982
18:00+22зюз37512 0.0 1013872
21:00+16зюз24770 0.0 101463
17 мая, пн
пн1700:00+14зюз26840 0.0 1015125
03:00+12з24925 0.0 101664
06:00+16з23770 0.0 1017218
09:00+21зюз23555 0.0 10181018
12:00+24зюз244296 0.0 10181917
15:00+24зюз2340100 0.0 10172071
18:00+23з1155100 0.0 101817
21:00+17юв006966 0.0 101811